CST,Max TemperatureF,Mean TemperatureF,Min TemperatureF,Max Dew PointF,MeanDew PointF,Min DewpointF,Max Humidity, Mean Humidity, Min Humidity, Max Sea Level PressureIn, Mean Sea Level PressureIn, Min Sea Level PressureIn, Max VisibilityMiles, Mean VisibilityMiles, Min VisibilityMiles, Max Wind SpeedMPH, Mean Wind SpeedMPH, Max Gust SpeedMPH,PrecipitationIn, CloudCover, Events, WindDirDegrees
2013-12-1,68,60,53,56,54,52,96,83,63,30.22,30.12,29.95,10,9,3,15,6,20,0.00,5,,208
2013-12-2,80,66,48,54,45,33,93,62,19,29.94,29.79,29.67,10,9,5,14,5,22,0.00,0,,257
2013-12-3,80,62,43,46,40,35,82,54,20,29.71,29.66,29.60,10,10,6,14,2,,0.00,0,,241
2013-12-4,77,64,50,62,53,41,93,73,51,29.79,29.72,29.66,10,7,4,9,2,,0.00,0,,173
2013-12-5,60,44,28,59,35,21,96,77,54,30.14,30.00,29.78,10,7,2,18,9,29,0.00,7,Snow,358
2013-12-6,30,28,25,29,25,18,93,83,75,30.48,30.27,30.09,10,8,2,17,12,26,0.00,7,Rain-Snow,352
2013-12-7,27,24,21,20,18,14,84,77,71,30.51,30.40,30.30,10,9,9,16,10,22,0.00,7,Snow,5
2013-12-8,45,34,24,36,28,20,100,89,71,30.25,30.15,30.03,10,6,1,5,1,,0.00,6,,101
2013-12-9,36,33,30,35,31,27,100,94,85,30.42,30.17,30.06,6,3,0,14,7,22,0.00,7,Fog,24
2013-12-10,44,34,24,27,21,17,88,66,35,30.54,30.43,30.36,10,9,6,13,7,22,0.00,1,,345
2013-12-11,55,41,27,30,25,21,85,59,32,30.57,30.43,30.34,10,10,4,13,3,,0.00,0,,4
2013-12-12,50,40,30,32,29,24,79,64,48,30.61,30.49,30.30,10,8,6,8,4,,0.00,0,,57
2013-12-13,46,44,41,46,40,32,100,88,67,30.30,30.01,29.90,7,2,0,9,5,,0.03,8,Fog-Rain,182
2013-12-14,50,42,33,40,34,26,100,82,50,30.37,30.06,29.88,10,5,0,18,5,25,0.00,3,Fog,312
2013-12-15,57,42,28,33,28,25,85,62,28,30.41,30.35,30.29,10,10,10,9,3,,0.00,0,,292
2013-12-16,66,48,30,34,30,26,82,57,25,30.31,30.26,30.19,10,10,10,14,2,,0.00,0,,197
2013-12-17,69,51,33,37,32,28,82,58,22,30.34,30.28,30.24,10,10,10,8,1,,0.00,0,,305
2013-12-18,66,51,36,51,43,32,86,72,48,30.30,30.20,30.04,10,10,10,15,5,21,0.00,1,,182
2013-12-19,69,62,54,60,55,49,93,78,63,30.06,29.90,29.79,10,10,9,24,12,32,0.00,6,,182
2013-12-20,70,66,57,65,61,53,94,84,71,29.87,29.77,29.65,9,8,5,14,9,22,0.00,6,Rain,168
2013-12-21,64,52,39,51,43,36,97,86,38,29.83,29.69,29.59,10,8,1,14,8,23,0.72,6,Rain-Thunderstorm,317
2013-12-22,48,42,34,38,33,26,93,69,46,30.40,30.12,29.86,10,10,9,17,8,25,0.00,2,,338
2013-12-23,53,40,28,29,25,21,82,60,29,30.55,30.47,30.39,10,10,10,6,3,,0.00,0,,27
2013-12-24,57,44,30,33,27,25,85,59,30,30.53,30.42,30.26,10,10,8,14,3,21,0.00,0,,176
2013-12-25,57,47,37,45,39,32,93,76,62,30.43,30.32,30.25,10,10,8,12,3,21,0.00,4,,303
2013-12-26,55,44,32,38,34,29,89,71,49,30.45,30.39,30.34,10,8,4,7,3,,0.00,0,,348
2013-12-27,55,48,41,38,35,29,85,64,36,30.45,30.38,30.34,10,10,6,6,3,,0.00,6,,32
2013-12-28,59,49,39,44,40,35,93,74,51,30.32,30.15,30.02,10,8,5,9,3,,0.00,4,,172
2013-12-29,54,42,30,45,39,27,93,83,69,30.31,30.12,29.96,10,8,2,18,8,28,0.00,8,Rain,308
2013-12-30,45,36,28,29,24,19,88,65,42,30.40,30.32,30.25,10,10,10,13,8,21,0.00,3,,337
2013-12-31,54,43,32,29,28,26,82,60,35,30.48,30.36,30.24,10,10,10,8,2,,0.00,0,,160